Things To Keep In Mind With Our Used Selections

Our used items generally get added Monday through Friday. Generally they are added in the morning hours, however it isn't that usual for us to do them later in the day. We do not add new used items on the weekends.

Also please remember that we only have one of each item listed and they often times sell quickly. Call us at 541-683-6902 to have an item held, or order directly from the website.


If you would like to look at the new used arrivals for a different date, click on the day you want on the calendar at the right.

prev month OCT - 2017 next month  
Su Mo Tu We Th Fr Sa
1234567
891011121314
15161718192021
22232425262728
293031

Displaying New Used Arrivals On 2/24/2018
Item#   Label Media Arrived Artist Title Price
11104701295  USED2/24/2018  36 CRAZYFISTSCOLLISIONS & CASTAWAYS (COLV) - ORANGE VINYL$11.95
11104743145  USED2/24/2018  AANAMOR AD NAUSEUM$8.95
11104755465  USED2/24/2018  AudioslaveAudioslave$5.95
11104755515  USED2/24/2018  AudioslaveRevelations$5.95
11104743375  USED2/24/2018  AutographSign in Please$7.95
11104725975  USED2/24/2018  AUTUMN DEFENCEAUTUMN DEFENSE Vinyl RSD 2015$21.95
11104755875  USED2/24/2018  Bach / PiresPartita 1 / English Suite 3 / French Suite 2$6.95
11104755885  USED2/24/2018  Bach J.S. / Rampal / Munchinger / RedivBach J.S. / Rampal / Munchinger / Rediviva Orch$5.95
11104755805  USED2/24/2018  BEYONCEI AM YOURS: AN INTIMATE PERFORMANCE AT THE WYNN$8.95
11104755685  USED2/24/2018  BLACKMORE RITCHIEBLACK MASQUERADE$6.95
11104755795  USED2/24/2018  Brothers FourBrothers Four / B.M.O.C.$6.95
11104755725  USED2/24/2018  BURDON ERICTIL YOUR RIVER RUNS DRY$6.95
11104595905  USED2/24/2018  CAT MOTHER & THE ALL NIGHT NEWSBOYSALBION DOO-WAH$6.95
11104755755  USED2/24/2018  Cooper AliceEyes of Alice Cooper$6.95
11104755445  USED2/24/2018  CreamBBC Sessions$6.95
11104755735  USED2/24/2018  Crosby Stills NashGreatest Hits$6.95
11104755535  USED2/24/2018  Cypress HillCypress Hill$5.95
11104755665  USED2/24/2018  DEEP PURPLELIVE AT MONTREUX 1996 & 2006$6.95
11104725965  USED2/24/2018  DEPECHE MODESPIRIT (GATE) (OGV) (DLCD) - VINYL$22.95
11104755955  USED2/24/2018  DeVille MinkCoup De Grace$5.95
11104755595  USED2/24/2018  Diamond Neil12 Songs$5.95
11104755835  USED2/24/2018  Dire StraitsBrothers in arms$6.95
11104529685  USED2/24/2018  Doobie BrothersOne Step Closer$3.00
11104755545  USED2/24/2018  Dropkick MurphySingles Collection$6.95
11104755615  USED2/24/2018  Dylan JakobSeeing Things (Sba2) (Dig)$5.95
11104755775  USED2/24/2018  EmotionsBest of My Love: Best of$5.95
11104696125  USED2/24/2018  ENSLAVEDROADBURN LIVE - Vinyl RSD$18.95
11104755865  USED2/24/2018  Faure / Hendricks / DalbertoMelodies$6.95
11104701495  USED2/24/2018  FOR THE FALLEN DREAMSHEAVY HEARTS (BONUS CD) (COLV) - WHITE VINYL$8.95
11104755695  USED2/24/2018  Foreigner4 (Bonus Tracks) (RMST)$6.95
11104755785  USED2/24/2018  Gaye MarvinHere My Dear$5.95
11104755935  USED2/24/2018  HART BETHFIRE ON THE FLOOR$6.95
11104755745  USED2/24/2018  HENDRIX JIMIPEOPLE HELL & ANGELS (DIG) Unreleased Material$6.95
11104755715  USED2/24/2018  HENDRIX JIMIVALLEYS OF NEPTUNE (HOL)$6.95
11104755825  USED2/24/2018  John EltonGreatest Hits$6.95
11104755845  USED2/24/2018  John EltonGreatest Hits Vol 1$6.95
11104755965  USED2/24/2018  Just Because I'm a Woman: Songs of DollJust Because I'm a Woman: Songs of Dolly / Variou$6.95
11104755815  USED2/24/2018  KissDestroyer$5.95
11104755925  USED2/24/2018  LA LA LAND / O.S.T.LA LA LAND / O.S.T.$6.95
11104755895  USED2/24/2018  MA YO-YO / SILK ROAD ENSEMBLESING ME HOME$5.95
11104755495  USED2/24/2018  MetallicaGarage Inc$11.95
11104755505  USED2/24/2018  MetallicaS&M$8.95
11104755975  USED2/24/2018  MetallicaUntil It Sleeps$4.95
11104755765  USED2/24/2018  Nyro LauraXmas & Beads of Sweat$5.95
11104755455  USED2/24/2018  Osbourne OzzyDown to Earth$5.95
11104755525  USED2/24/2018  PanteraBest of Pantera: Far Beyond the Great Southern$6.95
11104755555  USED2/24/2018  PanteraCowboys From Hell$6.95
11104755905  USED2/24/2018  Parkening ChristopherVirtuoso Duets - w/ David Brandon$6.95
11104755705  USED2/24/2018  Pearl JamVitalogy$5.95
11104755475  USED2/24/2018  Public EnemyFear of a Black planet$5.95
11104755485  USED2/24/2018  Public EnemyMuse Sick-N-Hour Mess Age$5.95
11104728445  USED2/24/2018  Rolling Stones12 Miss You / Far Away Eyes - Pink Vinyl$9.95
11104731085  USED2/24/2018  Rolling StonesBig Hits (High tide And Green Grass)$9.95
11104728265  USED2/24/2018  Rolling StonesEmotional Rescue$8.95
11104735155  USED2/24/2018  Rolling StonesSteel Wheels$7.95
11104590985  USED2/24/2018  Rolling StonesSucking in the Seventies$6.95
11104674735  USED2/24/2018  SHADOW OF THE TORTURERMARCHING INTO CHAOS$9.95
11104755915  USED2/24/2018  ShostakovichSuite on peoms by michelangelo$6.95
11104755645  USED2/24/2018  Simon & GarfunkelLive 1969$5.95
11104708805  USED2/24/2018  SLAYERREPENTLESS - VINYL$24.95
11104755585  USED2/24/2018  Southern Culture On the SkidsDirt Track Date$6.95
11104755655  USED2/24/2018  SPRINGSTEEN BRUCEPROMISE$6.95
11104755605  USED2/24/2018  STEWART RODTIME$6.95
11104755625  USED2/24/2018  STONE TEMPLE PILOTSBUY THIS (BB)$5.95
11104285975  USED2/24/2018  Tattooed Love BoysBleeding Hearts & Needle marks$9.95
11104755635  USED2/24/2018  Thorogood GeorgeHaircut$5.95
11104749735  USED2/24/2018  THOUARCHER & THE OWLE - RED VINYL$17.95
11104735845  USED2/24/2018  Thunderclap NewmanHollywood Dream$6.95
11104749935  USED2/24/2018  TKOIN YOUR FACE$9.95
11104749925  USED2/24/2018  TNTKNIGHTS OF THE NEW THUNDER$8.95
11104749905  USED2/24/2018  TNTTell No Tales$9.95
11104701105  USED2/24/2018  TO THE WINDBLOCK OUT THE SUN AND SLEEP$11.95
11104755855  USED2/24/2018  Torme MelThat's All (Bonus Tracks) (RMST)$5.95
11104696295  USED2/24/2018  TURTLESMORE GOLDEN HITS- VINYL RSD$15.95
11104755945  USED2/24/2018  Voodoo Glow SkullsSouthern California Street Music$6.95
11104736155  USED2/24/2018  Whitlock BobbyRaw velvet$5.00
11104696325  USED2/24/2018  YEASAYERAMEN & GOODBYE (DLCD) - VINYL$16.95
11104755565  USED2/24/2018  YOUNG NEILLE NOISE$6.95
11104755675  USED2/24/2018  Young NeilRoad Rock 1$5.95